{"data":{"norad_id":60513,"intl_designator":"2024-149AX","name":"FLOCK 4BE-27","alt_names":[],"object_type":"PAYLOAD","status":"ACTIVE","operator":null,"country":"US","launch_date":"2024-08-16","launch_site_code":"AFWTR","launch_vehicle":null,"mission":null,"orbit_class":"UNKNOWN","rcs_meters":null,"size_class":null,"mass_kg":null,"dimensions":null,"purposes":["earth_obs"],"wikipedia_slug":null,"has_3d_model":false,"image_url":null,"decayed_at":null,"tle_current":{"epoch":"2026-05-24T18:43:04.816704Z","epoch_age_seconds":88023,"freshness":"FRESH","line1":"1 60513U 24149AX  26144.77991686  .00007764  00000+0  23856-3 0  9995","line2":"2 60513  97.3823 226.6277 0004510  47.9286 312.2340 15.33976053 98551","mean_motion":15.33976053,"eccentricity":0.000451,"inclination_deg":97.3823,"raan_deg":226.6277,"arg_perigee_deg":47.9286,"mean_anomaly_deg":312.234,"bstar":0.00023856,"rev_number":9855,"period_min":93.873694910934,"perigee_km":460.87780286245,"apogee_km":467.04937759484,"semimajor_km":6842.1005902286,"source":"CELESTRAK","updated_at":"2026-05-25T13:38:13.333271Z"}}}